Weather History for KDYT - July, 2013

Change the Weather History Date:

Monday, July 8, 2013

  Actual Average Record
Temperature  
Mean Temperature 56 °F -  
Max Temperature 60 °F 78 °F 95 °F (1974)
Min Temperature 51 °F 55 °F 34 °F (1961)
Degree Days  
Heating Degree Days 10    
Growing Degree Days 6 (Base 50)    
Moisture  
Dew Point 52 °F    
Average Humidity 92    
Maximum Humidity 100    
Minimum Humidity 82    
Precipitation  
Precipitation 0.00 in - - ()
Sea Level Pressure  
Sea Level Pressure 30.02 in    
Wind  
Wind Speed 12 mph (ENE)    
Max Wind Speed 28 mph    
Max Gust Speed 31 mph    
Visibility 6 miles    
Events Fog , Rain , Thunderstorm    
Averages and records for this station are not official NWS values.
T = Trace of Precipitation, MM = Missing Value Source: NWS Daily Summary

Daily Weather History Graph

Daily Weather History Graph

Search for Another Location

Airport or City:

Trip Planner

Search our weather history database for the weather conditions in past years. The results will help you decide how hot, cold, wet, or windy it might be!

Date:

Astronomy

Jul. 08, 2013 Rise Set
Actual Time 5:23 AM CDT 9:02 PM CDT
Civil Twilight 4:44 AM CDT 9:41 PM CDT
Nautical Twilight 3:53 AM CDT 10:32 PM CDT
Astronomical Twilight 2:41 AM CDT 11:43 PM CDT
Moon 5:59 AM CDT (7/8) 8:57 PM CDT (7/8)
Length of Visible Light 16h 56m
Length of Day
15h 39m
New Moon, 0% of the Moon is Illuminated
Jul 8
New Moon
Jul 15
First Quarter
Jul 22
Full
Jul 29
Last Quarter
Aug 6
New

Hourly Weather History & Observations

Time (CDT) Temp. Dew Point Humidity Pressure Visibility Wind Dir Wind Speed Gust Speed Precip Events Conditions
12:13 AM 53.6 °F 51.8 °F 94% 29.96 in 5.0 mi NNE 27.6 mph 31.1 mph N/A Thunderstorm Overcast
12:34 AM 53.6 °F 51.8 °F 94% 29.95 in 3.0 mi NNE 24.2 mph - N/A   Overcast
12:53 AM 53.6 °F 51.8 °F 94% 29.96 in 10.0 mi NE 19.6 mph - N/A   Overcast
1:13 AM 55.4 °F 53.6 °F 94% 29.97 in 10.0 mi NE 18.4 mph 23.0 mph N/A   Overcast
1:34 AM 55.4 °F 53.6 °F 94% 29.98 in 10.0 mi NE 15.0 mph - N/A   Overcast
1:53 AM 55.4 °F 53.6 °F 94% 29.99 in 7.0 mi East 11.5 mph - N/A   Overcast
2:13 AM 53.6 °F 51.8 °F 94% 30.01 in 2.0 mi East 4.6 mph - N/A   Drizzle
2:34 AM 51.8 °F 50.0 °F 94% 30.01 in 3.0 mi East 8.1 mph - N/A   Light Drizzle
2:53 AM 53.6 °F 51.8 °F 94% 30.00 in 3.0 mi ENE 13.8 mph - N/A   Drizzle
3:13 AM 53.6 °F 51.8 °F 94% 29.99 in 2.0 mi ENE 17.3 mph - N/A   Light Drizzle
3:34 AM 53.6 °F 51.8 °F 94% 30.00 in 1.5 mi ENE 16.1 mph - N/A Rain Light Rain
3:53 AM 51.8 °F 51.8 °F 100% 30.00 in 1.5 mi ENE 15.0 mph - N/A   Light Drizzle
4:13 AM 51.8 °F 50.0 °F 94% 29.99 in 1.2 mi ENE 15.0 mph - N/A   Overcast
4:34 AM 51.8 °F 50.0 °F 94% 29.99 in 1.2 mi ENE 13.8 mph - N/A   Overcast
4:53 AM 51.8 °F 50.0 °F 94% 30.00 in 1.0 mi ENE 13.8 mph - N/A   Overcast
5:13 AM 51.8 °F 50.0 °F 94% 30.00 in 1.0 mi ENE 13.8 mph - N/A   Overcast
5:34 AM 51.8 °F 50.0 °F 94% 30.00 in 0.5 mi ENE 13.8 mph - N/A Rain Rain
5:53 AM 51.8 °F 50.0 °F 94% 29.99 in 0.2 mi East 11.5 mph - N/A   Drizzle
6:13 AM 51.8 °F 50.0 °F 94% 30.00 in 0.2 mi ENE 10.4 mph - N/A   Drizzle
6:34 AM 51.8 °F 50.0 °F 94% 30.00 in 0.2 mi ENE 9.2 mph - N/A   Drizzle
6:53 AM 51.8 °F 50.0 °F 94% 30.00 in 0.2 mi ENE 6.9 mph - N/A   Light Drizzle
7:13 AM 51.8 °F 50.0 °F 94% 30.01 in 1.0 mi ENE 6.9 mph - N/A   Overcast
7:33 AM 51.8 °F 50.0 °F 94% 30.01 in 1.5 mi NE 5.8 mph - N/A   Overcast
7:53 AM 51.8 °F 50.0 °F 94% 30.02 in 1.0 mi NE 5.8 mph - N/A   Overcast
8:14 AM 51.8 °F 50.0 °F 94% 30.03 in 1.0 mi ENE 4.6 mph - N/A   Overcast
8:33 AM 51.8 °F 51.8 °F 100% 30.02 in 1.5 mi ENE 8.1 mph - N/A   Overcast
8:54 AM 51.8 °F 51.8 °F 100% 30.03 in 1.5 mi ENE 8.1 mph - N/A   Overcast
9:13 AM 51.8 °F 51.8 °F 100% 30.04 in 2.5 mi ENE 6.9 mph - N/A   Overcast
9:34 AM 51.8 °F 51.8 °F 100% 30.05 in 4.0 mi ENE 3.5 mph - N/A   Overcast
9:53 AM 53.6 °F 51.8 °F 94% 30.06 in 3.0 mi ENE 3.5 mph - N/A   Overcast
10:14 AM 53.6 °F 51.8 °F 94% 30.06 in 7.0 mi NE 4.6 mph - N/A   Overcast
10:33 AM 53.6 °F 51.8 °F 94% 30.06 in 5.0 mi NE 5.8 mph - N/A   Overcast
10:54 AM 53.6 °F 51.8 °F 94% 30.07 in 7.0 mi ENE 5.8 mph - N/A   Overcast
11:13 AM 53.6 °F 51.8 °F 94% 30.07 in 10.0 mi ENE 5.8 mph - N/A   Overcast
11:33 AM 53.6 °F 51.8 °F 94% 30.07 in 10.0 mi NE 4.6 mph - N/A   Overcast
11:54 AM 53.6 °F 51.8 °F 94% 30.07 in 10.0 mi NNE 4.6 mph - N/A   Overcast
12:13 PM 55.4 °F 53.6 °F 94% 30.06 in 10.0 mi NNE 5.8 mph - N/A   Overcast
12:33 PM 55.4 °F 53.6 °F 94% 30.06 in 10.0 mi ENE 3.5 mph - N/A   Overcast
12:54 PM 55.4 °F 53.6 °F 94% 30.06 in 10.0 mi Calm Calm - N/A   Overcast
1:13 PM 55.4 °F 53.6 °F 94% 30.05 in 10.0 mi Calm Calm - N/A   Overcast
1:33 PM 55.4 °F 53.6 °F 94% 30.05 in 10.0 mi East 3.5 mph - N/A   Overcast
1:54 PM 55.4 °F 53.6 °F 94% 30.05 in 10.0 mi Calm Calm - N/A   Overcast
2:13 PM 57.2 °F 53.6 °F 88% 30.04 in 10.0 mi Calm Calm - N/A   Overcast
2:34 PM 57.2 °F 53.6 °F 88% 30.04 in 10.0 mi Calm Calm - N/A   Overcast
2:53 PM 57.2 °F 53.6 °F 88% 30.03 in 10.0 mi Calm Calm - N/A   Overcast
3:14 PM 57.2 °F 53.6 °F 88% 30.04 in 10.0 mi Calm Calm - N/A   Overcast
3:33 PM 59.0 °F 53.6 °F 82% 30.03 in 10.0 mi Calm Calm - N/A   Overcast
3:53 PM 57.2 °F 53.6 °F 88% 30.03 in 10.0 mi East 3.5 mph - N/A   Overcast
4:14 PM 60.8 °F 55.4 °F 82% 30.02 in 10.0 mi East 3.5 mph - N/A   Overcast
4:33 PM 60.8 °F 55.4 °F 82% 30.02 in 10.0 mi ENE 4.6 mph - N/A   Mostly Cloudy
4:53 PM 60.8 °F 55.4 °F 82% 30.02 in 10.0 mi East 3.5 mph - N/A   Scattered Clouds
5:14 PM 60.8 °F 55.4 °F 82% 30.01 in 10.0 mi NE 4.6 mph - N/A   Clear
5:33 PM 60.8 °F 55.4 °F 82% 30.00 in 10.0 mi ENE 8.1 mph - N/A   Clear
5:54 PM 60.8 °F 55.4 °F 82% 30.01 in 10.0 mi ENE 6.9 mph - N/A   Clear
6:13 PM 60.8 °F 55.4 °F 82% 30.01 in 10.0 mi ENE 6.9 mph - N/A   Clear
6:34 PM 59.0 °F 55.4 °F 88% 30.00 in 10.0 mi NE 6.9 mph - N/A   Clear
6:53 PM 59.0 °F 55.4 °F 88% 30.01 in 10.0 mi NNE 6.9 mph - N/A   Clear
7:13 PM 59.0 °F 55.4 °F 88% 30.00 in 10.0 mi NNE 8.1 mph - N/A   Clear
7:34 PM 57.2 °F 55.4 °F 94% 30.00 in 10.0 mi NE 5.8 mph - N/A   Clear
7:53 PM 57.2 °F 53.6 °F 88% 30.00 in 10.0 mi ENE 5.8 mph - N/A   Clear
8:13 PM 57.2 °F 55.4 °F 94% 30.00 in 10.0 mi ENE 8.1 mph - N/A   Clear
8:33 PM 57.2 °F 53.6 °F 88% 30.00 in 10.0 mi ENE 8.1 mph - N/A   Clear
8:53 PM 55.4 °F 51.8 °F 88% 30.00 in 10.0 mi East 6.9 mph - N/A   Clear
9:14 PM 53.6 °F 51.8 °F 94% 30.00 in 10.0 mi East 8.1 mph - N/A   Clear
9:33 PM 53.6 °F 51.8 °F 94% 30.01 in 10.0 mi East 6.9 mph - N/A   Clear
9:53 PM 55.4 °F 51.8 °F 88% 30.01 in 10.0 mi East 10.4 mph - N/A   Clear
10:14 PM 53.6 °F 51.8 °F 94% 30.02 in 10.0 mi ENE 9.2 mph - N/A   Scattered Clouds
10:33 PM 53.6 °F 51.8 °F 94% 30.02 in 10.0 mi ENE 8.1 mph - N/A   Mostly Cloudy
10:53 PM 53.6 °F 51.8 °F 94% 30.02 in 10.0 mi ENE 6.9 mph - N/A   Overcast
11:14 PM 51.8 °F 50.0 °F 94% 30.03 in 0.5 mi ENE 5.8 mph - N/A Fog Fog
11:33 PM 51.8 °F 50.0 °F 94% 30.03 in 0.2 mi ENE 4.6 mph - N/A Fog Fog
11:53 PM 51.8 °F 51.8 °F 100% 30.03 in 0.2 mi NE 3.5 mph - N/A Fog Fog